Regional Weather Roundup
Issued by NWS Charleston, SC

Current Version | Previous Version | Graphics & Text | Print | Product List | Glossary On
Versions: 1 2 3 4 5 6 7 8 9 10 11 12 13 14 15 16 17 18 19 20 21 22 23 24 25 26 27 28 29 30 31 32 33 34 35 36 37 38 39 40 41 42 43 44 45 46 47 48 49 50
000
ASUS42 KCHS 261612
RWRCHS

REGIONAL WEATHER ROUNDUP
NATIONAL WEATHER SERVICE CHARLESTON SC
1200 PM EDT WED JUL 26 2017

NOTE: "FAIR" INDICATES FEW OR NO CLOUDS BELOW 12,000 FEET WITH NO
SIGNIFICANT WEATHER AND/OR OBSTRUCTIONS TO VISIBILITY.

NOT ALL STATIONS ARE QUALITY CONTROLLED. USE DATA WITH CAUTION...
ESPECIALLY DEWPOINT OBSERVATIONS.

SCZ027-030-031-034>040-042>050-261700-
...SOUTHEAST SOUTH CAROLINA...

CITY           SKY/WX    TMP DP  RH WIND       PRES   REMARKS
N CHARLESTON   CLOUDY    80  73  79 SW12      30.11F THUNDER
WATERFRONT PRK   N/A     80  76  87 SW7       30.10R
JOHNS ISLAND   FAIR      79  75  89 S9        30.12F
PINOPOLIS        N/A     84  77  79 VRB2      30.04S HX  94
MONCKS CORNER  PTSUNNY   81  75  83 CALM      30.11F
SUMMERVILLE    PTSUNNY   81  73  78 S5        30.13R
BEAUFORT MCAS  RAIN      75  74  96 NE3       30.13S FOG
BEAUFORT ARPT  PTSUNNY   73  73 100 CALM      30.13R
HILTON HEAD IS PTSUNNY   77  77 100 NE8       30.13R
WALTERBORO     CLOUDY    81  73  78 S6        30.13F
ALLENDALE      NOT AVBL

...SOUTHERN MIDLANDS AND PEE DEE...

CITY           SKY/WX    TMP DP  RH WIND       PRES   REMARKS
GEORGETOWN     FAIR      73  73 100 CALM      30.13R THUNDER
KINGSTREE      CLOUDY    82  77  83 E3        30.11F HX  91
ORANGEBURG     CLOUDY    84  74  71 E5        30.11F HX  91
BARNWELL       DRIZZLE   79  75  89 CALM      30.12F
AIKEN          FAIR      84  73  70 E7        30.16S HX  91
MANNING        CLOUDY    82  72  69 E3        30.11F
COLUMBIA       CLOUDY    85  75  72 E9        30.13S HX  93
SUMTER         CLOUDY    81  75  80 E6        30.11S
FLORENCE       MOSUNNY   86  77  74 E10       30.13R HX  97
MYRTLE BEACH   PTSUNNY   82  75  78 E14       30.13R
N MYRTLE BEACH CLOUDY    86  75  69 E14       30.12R HX  95

$$

GAZ063-065-086>088-099>101-113>116-118-119-134>141-150-261700-
...SOUTHEAST GEORGIA...

CITY           SKY/WX    TMP DP  RH WIND       PRES   REMARKS
SAVANNAH ARPT  CLOUDY    81  73  76 E7        30.12S
HUNTER AAF     RAIN      78  75  91 E9        30.09F
FORT STEWART   PTSUNNY   83  74  73 N3        30.09S
STATESBORO     DRIZZLE   79  75  87 SE3       30.12S
SYLVANIA       LGT RAIN  77  76  98 SE5       30.14S
CLAXTON        PTSUNNY   85  75  71 N7        30.11S HX  93

...CSRA...CENTRAL AND FAR SOUTHEAST GEORGIA...

CITY           SKY/WX    TMP DP  RH WIND       PRES   REMARKS
THOMSON        SUNNY     86  74  68 E5        30.18S HX  93
AUGUSTA-BUSH   MOSUNNY   87  77  72 SE7       30.11R HX  99
AUGUSTA-DANIEL MOSUNNY   86  73  65 MISG      30.13S HX  93
SWAINSBORO     FAIR      84  73  70 E6        30.13S HX  91
VIDALIA        CLOUDY    82  73  74 E3        30.12S
EASTMAN        CLOUDY    84  66  54 E3        30.14S
HAZLEHURST     CLOUDY    82  77  86 NE3       30.10S HX  90
ALMA           PTSUNNY   83  74  74 VRB5      30.10F
WAYCROSS       CLOUDY    84  80  86 E5        30.10S HX  97
JESUP          NOT AVBL
BAXLEY         CLOUDY    81  81 100 E5        30.11S HX  91
BRUNSWICK      PTSUNNY   82  77  83 W5        30.11S HX  91
SAINT SIMONS   CLOUDY    84  76  76 W6        30.10S HX  93

$$

SCZ027-028-034-036>038-045-046-048>050-GAZ119-141-261700-
...LAKE AND SUPPLEMENTAL COASTAL OBSERVATIONS...

STATION/POSITION TIME  TEMP    WIND        PRES    WAVE   SWELL
                       AIR SEA DIR/SP/G            HT/PER HT/PER/DIR
                 (UTC) (F)     (DEG/KT/KT) (MB)    (FT/S) (FT/S/D)
WINYAH BAY       NOT AVBL
LAKE MURRAY      1520   79      50/  2/  9 1019.6
ACE BASIN NERRS  1445   77        CALM     1020.0
FORT PULASKI     1548   75 85  130/  9/ 13 1020.2R
SAPELO ISLAND    NOT AVBL

$$

ANZ835-935-AMZ111-154-330-350-352-354-370-450-454-472-261700-
...C-MAN AND BUOY OBSERVATIONS...

STATION/POSITION TIME  TEMP    WIND        PRES    WAVE   SWELL
                       AIR SEA DIR/SP/G            HT/PER HT/PER/DIR
                 (UTC) (F)     (DEG/KT/KT) (MB)    (FT/S) (FT/S/D)
BUOY 41004       1550   80 83  220/ 12/ 16 1019.0R   3/ 5   2/100/ 9
BUOY 41008       1550   79 81   70/ 16/ 19 1018.8F   2/10   2/140/10
FOLLY BEACH CMAN 1500   80     180/ 15/ 17 1020.3R
CAPERS NEARSHORE 1508   78 84  220/ 14/ 17 1019.3R
FRIPP NEARSHORE  1508   76 83  160/ 10/ 14 1019.9F


STATION/POSITION TIME  TEMP    WIND        PRES    WAVE   SWELL
                       AIR SEA DIR/SP/G            HT/PER HT/PER/DIR
                 (UTC) (F)     (DEG/KT/KT) (MB)    (FT/S) (FT/S/D)
5E ST. MARYS GA  1530      80                N/A     2/11
FRYING PAN BUOY  1550   83 83   50/  4/  8 1019.3R
BUOY 41025       1550   81 83   50/ 12/ 16 1020.7R   3/ 5   2/ 90/10
CAPE LOOKOUT NC  1500   79      40/ 15/ 18 1020.7R
BUOY 41002       1450   83 83  230/ 12/ 14 1019.4    3/ 9   2/ 90/ 9
BUOY 41010       1550   85 85  220/  8/  8 1019.8S   2/ 9   2/120/ 9
ST AUGUSTINE FL  1600   87 74  230/  8/ 10 1019.4F


$$




USA.gov is the U.S. government's official web portal to all federal, state and local government web resources and services.